This is the latest recevied weather packets stored in our database for station/object KF7ROW. If no packets are shown the sender has not sent any weather packets the latest 10 day(s).
| Time | Temp. | Humidity | Pressure | Rain* | Wind** | Luminosity | Snow |
|---|---|---|---|---|---|---|---|
| 1778089527 | 13.33° C | 87% | 1026.3 hPa | 0 mm | - | 117 W/m² | - |
| 1778089222 | 12.78° C | 86% | 1026.4 hPa | 0 mm | - | 123 W/m² | - |
| 1778088920 | 12.78° C | 86% | 1026.3 hPa | 0 mm | - | 136 W/m² | - |
| 1778088617 | 12.78° C | 85% | 1026.2 hPa | 0 mm | - | 153 W/m² | - |
| 1778088314 | 12.78° C | 85% | 1026.1 hPa | 0 mm | - | 146 W/m² | - |
| 1778088010 | 13.33° C | 87% | 1026 hPa | 0 mm | - | 118 W/m² | - |
| 1778087708 | 12.78° C | 85% | 1026.2 hPa | 0 mm | - | 131 W/m² | - |
| 1778087405 | 12.78° C | 85% | 1026 hPa | 0 mm | - | 144 W/m² | - |
| 1778087101 | 13.33° C | 84% | 1025.9 hPa | 0 mm | - | 139 W/m² | - |
| 1778086794 | 12.78° C | 85% | 1026.2 hPa | 0 mm | - | 124 W/m² | - |
| 1778086492 | 12.78° C | 85% | 1025.8 hPa | 0 mm | - | 147 W/m² | - |
| 1778086183 | 12.78° C | 86% | 1026.1 hPa | 0 mm | - | 117 W/m² | - |
| 1778085880 | 12.78° C | 86% | 1026 hPa | 0 mm | - | 91 W/m² | - |
| 1778085577 | 12.78° C | 85% | 1026 hPa | 0 mm | - | 91 W/m² | - |
| 1778085272 | 12.78° C | 85% | 1026.1 hPa | 0 mm | - | 96 W/m² | - |
| 1778084967 | 12.78° C | 85% | 1025.9 hPa | 0 mm | - | 102 W/m² | - |
| 1778084664 | 12.78° C | 85% | 1026.1 hPa | 0 mm | - | 100 W/m² | - |
| 1778084356 | 12.78° C | 85% | 1025.8 hPa | 0 mm | - | 99 W/m² | - |
| 1778084054 | 12.78° C | 86% | 1025.8 hPa | 0 mm | - | 95 W/m² | - |
| 1778083746 | 12.78° C | 86% | 1025.9 hPa | 0 mm | - | 86 W/m² | - |
| 1778083442 | 12.78° C | 86% | 1025.5 hPa | 0 mm | - | 90 W/m² | - |
| 1778083141 | 12.78° C | 86% | 1025.6 hPa | 0 mm | - | 85 W/m² | - |
| 1778082837 | 12.78° C | 85% | 1025.4 hPa | 0 mm | - | 81 W/m² | - |
| 1778081714 | 12.78° C | 87% | 1025.3 hPa | 0 mm | - | 72 W/m² | - |
| 1778081411 | 12.22° C | 87% | 1025.4 hPa | 0 mm | - | 66 W/m² | - |
* Rain latest hour (hover to see other rain measurements)
** Current wind speed in m/s (hover to see current wind gust speed)